Location: Catstown
(52.4386°N, 7.2633°W)
Time: 13:40:58
(UTC+00:00)

Lacrosse 4 Rocket - Pass Details

Date: 18 September 2020
Orbit: 543 x 615 km, 68.0° (Epoch: 25 October)

Event Time Altitude Azimuth Distance (km) Brightness Sun altitude
Rises 22:34:40 0° 321° (NW) 2,718 6.0 -31.6°
Reaches altitude 10° 22:36:52 10° 319° (NW) 1,823 4.8 -31.7°
Enters shadow 22:38:23 22° 314° (NW) 1,233 3.7 -31.9°
